This is the latest recevied weather packets stored in our database for station/object K5SVV. If no packets are shown the sender has not sent any weather packets the latest 10 day(s).
| Time | Temp. | Humidity | Pressure | Rain* | Wind** | Luminosity | Snow |
|---|---|---|---|---|---|---|---|
| 1777814268 | 16.67° C | 69% | 1020.8 hPa | 0 mm | - | 195 W/m² | - |
| 1777813965 | 16.67° C | 71% | 1020.7 hPa | 0 mm | - | 183 W/m² | - |
| 1777813663 | 16.67° C | 71% | 1020.6 hPa | 0 mm | - | 155 W/m² | - |
| 1777813360 | 16.11° C | 72% | 1020.7 hPa | 0 mm | - | 142 W/m² | - |
| 1777813057 | 16.11° C | 72% | 1020.4 hPa | 0 mm | - | 122 W/m² | - |
| 1777812755 | 15.56° C | 72% | 1020.5 hPa | 0 mm | - | 107 W/m² | - |
| 1777812451 | 15.56° C | 73% | 1020.6 hPa | 0 mm | - | 92 W/m² | - |
| 1777812149 | 15.56° C | 73% | 1020.4 hPa | 0 mm | - | 78 W/m² | - |
| 1777811847 | 15° C | 73% | 1020.2 hPa | 0 mm | - | 58 W/m² | - |
| 1777811545 | 15° C | 74% | 1020.3 hPa | 0 mm | - | 46 W/m² | - |
| 1777811241 | 15° C | 74% | 1020.2 hPa | 0 mm | - | 32 W/m² | - |
| 1777810938 | 15° C | 75% | 1020.3 hPa | 0 mm | - | 30 W/m² | - |
| 1777810634 | 14.44° C | 75% | 1020.3 hPa | 0 mm | - | 26 W/m² | - |
| 1777810332 | 14.44° C | 76% | 1020.2 hPa | 0 mm | - | 24 W/m² | - |
| 1777810027 | 13.89° C | 77% | 1020.1 hPa | 0 mm | - | 20 W/m² | - |
| 1777809726 | 13.89° C | 79% | 1020.1 hPa | 0 mm | - | 16 W/m² | - |
| 1777809423 | 13.89° C | 79% | 1020 hPa | 0 mm | - | 13 W/m² | - |
| 1777809120 | 13.33° C | 79% | 1020 hPa | 0 mm | - | 9 W/m² | - |
| 1777808818 | 13.33° C | 80% | 1019.9 hPa | 0 mm | - | 6 W/m² | - |
| 1777808514 | 13.33° C | 80% | 1019.7 hPa | 0 mm | - | 3 W/m² | - |
| 1777808211 | 13.33° C | 81% | 1019.7 hPa | 0 mm | - | 1 W/m² | - |
| 1777807911 | 13.33° C | 80% | 1019.7 hPa | 0 mm | - | 0 W/m² | - |
| 1777807608 | 13.33° C | 81% | 1019.8 hPa | 0 mm | - | 0 W/m² | - |
| 1777807305 | 13.33° C | 81% | 1019.6 hPa | 0 mm | - | 0 W/m² | - |
| 1777807001 | 13.33° C | 80% | 1019.9 hPa | 0 mm | - | 0 W/m² | - |
* Rain latest hour (hover to see other rain measurements)
** Current wind speed in m/s (hover to see current wind gust speed)